CW2401 Weather Reports


Display with metric or nautical units.
time (UTC)temp
F
wind
direction
speed
MPH
gust
MPH
rain 1hr
in
rain 24hr
in
rain mn
in
humidity
%
barometer
mb
20260506141507 66 86 0.0 2.0 0.00 0.00 0.00 80 1014.7
20260506141307 66 85 0.0 2.0 0.00 0.00 0.00 79 1014.7
20260506141107 66 85 0.0 2.0 0.00 0.00 0.00 79 1014.7
20260506140707 66 85 0.0 2.0 0.00 0.00 0.00 79 1014.8
20260506140507 66 84 0.0 2.0 0.00 0.00 0.00 79 1014.9
20260506140106 65 85 0.0 2.0 0.00 0.00 0.00 79 1014.9
20260506135907 65 93 0.0 2.0 0.00 0.00 0.00 80 1014.9
20260506135707 65 93 0.0 2.0 0.00 0.00 0.00 79 1014.9
20260506135506 65 93 1.0 2.0 0.00 0.00 0.00 80 1014.9
20260506135307 65 93 1.0 4.0 0.00 0.00 0.00 80 1014.9
20260506135106 65 93 1.0 4.0 0.00 0.00 0.00 80 1014.9
20260506134708 65 93 1.0 4.0 0.00 0.00 0.00 79 1014.9
20260506134508 65 57 1.0 4.0 0.00 0.00 0.00 79 1014.9
20260506134307 65 97 1.0 3.0 0.00 0.00 0.00 79 1015.1
20260506133908 65 84 1.0 3.0 0.00 0.00 0.00 80 1015.1
20260506133707 65 84 0.0 3.0 0.00 0.00 0.00 80 1015.1
20260506133307 65 80 1.0 4.0 0.00 0.00 0.00 80 1015.2
20260506132908 65 65 1.0 4.0 0.00 0.00 0.00 80 1015.2
20260506132706 65 65 1.0 4.0 0.00 0.00 0.00 80 1015.2
20260506132506 65 101 1.0 4.0 0.00 0.00 0.00 80 1015.2
20260506132308 65 98 1.0 4.0 0.00 0.00 0.00 80 1015.2
20260506131906 65 88 1.0 4.0 0.00 0.00 0.00 80 1015.4
20260506131507 65 88 1.0 4.0 0.00 0.00 0.00 79 1015.4
20260506131306 65 88 1.0 4.0 0.00 0.00 0.00 80 1015.4
20260506131107 65 59 1.0 4.0 0.00 0.00 0.00 80 1015.5
20260506130909 65 28 1.0 7.0 0.00 0.00 0.00 80 1015.5
20260506130706 65 29 1.0 7.0 0.00 0.00 0.00 80 1015.5
20260506130507 65 63 1.0 7.0 0.00 0.00 0.00 80 1015.5
20260506130307 65 61 1.0 7.0 0.00 0.00 0.00 80 1015.6
20260506130108 65 274 1.0 7.0 0.00 0.00 0.00 80 1015.6
20260506125909 65 107 1.0 5.0 0.00 0.00 0.00 80 1015.6
20260506125708 65 47 1.0 5.0 0.00 0.00 0.00 80 1015.7
20260506125306 65 134 1.0 5.0 0.00 0.00 0.00 80 1015.5
20260506125108 65 320 1.0 5.0 0.00 0.00 0.00 80 1015.4
20260506124908 65 63 1.0 5.0 0.00 0.00 0.00 80 1015.4
20260506124707 65 61 1.0 5.0 0.00 0.00 0.00 80 1015.3
20260506124306 65 155 1.0 5.0 0.00 0.00 0.00 80 1015.3
20260506124107 65 65 1.0 5.0 0.00 0.00 0.00 80 1015.2
20260506123907 65 65 1.0 5.0 0.00 0.00 0.00 80 1015.2
20260506123508 65 78 1.0 5.0 0.00 0.00 0.00 81 1015.1
20260506123308 65 69 1.0 5.0 0.00 0.00 0.00 80 1015.1
20260506123104 65 311 1.0 2.0 0.00 0.00 0.00 80 1015.0
20260506122906 65 323 0.0 2.0 0.00 0.00 0.00 80 1015.0
20260506122703 65 324 0.0 2.0 0.00 0.00 0.00 80 1015.0
20260506122504 65 321 0.0 2.0 0.00 0.00 0.00 80 1014.9
20260506122305 65 5 0.0 4.0 0.00 0.00 0.00 80 1014.9
20260506121659 65 300 1.0 4.0 0.00 0.00 0.00 80 1014.9
20260506121458 64 285 1.0 4.0 0.00 0.00 0.00 80 1014.9
20260506121300 65 57 1.0 4.0 0.00 0.00 0.00 80 1014.9
20260506120859 64 36 1.0 4.0 0.00 0.00 0.00 80 1014.9
20260506120659 64 230 0.0 3.0 0.00 0.00 0.00 80 1014.9
20260506120457 64 230 0.0 3.0 0.00 0.00 0.00 81 1014.8
20260506120258 64 103 0.0 2.0 0.00 0.00 0.00 81 1014.8
20260506120056 64 103 1.0 2.0 0.00 0.00 0.00 81 1014.8
20260506115255 64 91 1.0 3.0 0.00 0.00 0.00 81 1014.8
20260506115056 64 91 1.0 3.0 0.00 0.00 0.00 81 1014.7
20260506114852 64 95 1.0 4.0 0.00 0.00 0.00 81 1014.7
20260506114649 64 95 1.0 4.0 0.00 0.00 0.00 81 1014.5
20260506114447 64 111 1.0 4.0 0.00 0.00 0.00 81 1014.5
20260506114247 64 111 1.0 4.0 0.00 0.00 0.00 81 1014.5
20260506114049 64 134 1.0 4.0 0.00 0.00 0.00 81 1014.5
20260506113647 64 113 0.0 2.0 0.00 0.00 0.00 81 1014.7
20260506113447 64 88 0.0 2.0 0.00 0.00 0.00 81 1014.6
20260506113248 64 84 0.0 1.0 0.00 0.00 0.00 81 1014.6
20260506113048 64 84 0.0 1.0 0.00 0.00 0.00 81 1014.5
20260506112846 64 84 0.0 1.0 0.00 0.00 0.00 81 1014.5
20260506112445 64 84 0.0 1.0 0.00 0.00 0.00 81 1014.6
20260506112246 64 85 0.0 1.0 0.00 0.00 0.00 81 1014.5
20260506112045 64 86 0.0 2.0 0.00 0.00 0.00 80 1014.6
20260506111843 64 84 0.0 2.0 0.00 0.00 0.00 81 1014.5
20260506111439 64 80 0.0 2.0 0.00 0.00 0.00 81 1014.6
20260506111036 64 79 1.0 3.0 0.00 0.00 0.00 81 1014.8
20260506110433 63 79 1.0 3.0 0.00 0.00 0.00 80 1014.6
20260506110031 63 49 0.0 3.0 0.00 0.00 0.00 80 1014.6
20260506105626 63 74 1.0 3.0 0.00 0.00 0.00 81 1014.4
20260506105425 63 84 1.0 3.0 0.00 0.00 0.00 80 1014.3
20260506105225 63 85 1.0 5.0 0.00 0.00 0.00 80 1014.3
20260506105024 63 84 1.0 5.0 0.00 0.00 0.00 80 1014.4
20260506104825 63 73 1.0 5.0 0.00 0.00 0.00 80 1014.4
20260506104624 63 115 1.0 5.0 0.00 0.00 0.00 80 1014.4
20260506104424 63 115 1.0 5.0 0.00 0.00 0.00 80 1014.4
20260506104224 63 76 1.0 4.0 0.00 0.00 0.00 80 1014.4
20260506104027 63 54 0.0 4.0 0.00 0.00 0.00 80 1014.4
20260506103824 63 51 0.0 4.0 0.00 0.00 0.00 80 1014.3
20260506103623 63 64 0.0 4.0 0.00 0.00 0.00 80 1014.3
20260506103421 63 109 0.0 3.0 0.00 0.00 0.00 80 1014.2
20260506103219 63 109 1.0 3.0 0.00 0.00 0.00 80 1014.3
20260506103018 63 109 1.0 3.0 0.00 0.00 0.00 80 1014.3
20260506102816 63 109 1.0 3.0 0.00 0.00 0.00 80 1014.3
20260506102619 63 108 1.0 2.0 0.00 0.00 0.00 80 1014.3
20260506102217 63 109 1.0 2.0 0.00 0.00 0.00 80 1014.3
20260506102017 63 82 1.0 2.0 0.00 0.00 0.00 80 1014.3
20260506101812 63 82 1.0 2.0 0.00 0.00 0.00 80 1014.3
20260506101613 63 81 0.0 3.0 0.00 0.00 0.00 80 1014.3
20260506101212 63 71 0.0 3.0 0.00 0.00 0.00 80 1014.2
20260506101014 63 105 1.0 3.0 0.00 0.00 0.00 80 1014.2
20260506100814 63 105 1.0 3.0 0.00 0.00 0.00 80 1014.1
20260506100611 63 105 1.0 3.0 0.00 0.00 0.00 80 1014.2
20260506100412 63 107 1.0 3.0 0.00 0.00 0.00 80 1014.3
20260506095807 63 76 1.0 3.0 0.00 0.00 0.00 80 1014.5
20260506095608 63 46 1.0 3.0 0.00 0.00 0.00 80 1014.5
20260506095407 63 0 1.0 3.0 0.00 0.00 0.00 80 1014.6
20260506095205 63 355 1.0 3.0 0.00 0.00 0.00 80 1014.6
20260506094806 64 80 1.0 3.0 0.00 0.00 0.00 80 1014.6
20260506094605 64 78 1.0 3.0 0.00 0.00 0.00 80 1014.5
20260506094406 64 78 1.0 3.0 0.00 0.00 0.00 80 1014.5
20260506094203 64 107 1.0 3.0 0.00 0.00 0.00 80 1014.5
20260506094002 64 133 0.0 3.0 0.00 0.00 0.00 80 1014.6
20260506093803 64 49 1.0 3.0 0.00 0.00 0.00 80 1014.7
20260506093600 64 95 1.0 5.0 0.00 0.00 0.00 80 1014.7
20260506093402 64 65 1.0 5.0 0.00 0.00 0.00 80 1014.6
20260506093200 64 65 1.0 5.0 0.00 0.00 0.00 80 1014.7
20260506092958 64 121 1.0 5.0 0.00 0.00 0.00 80 1014.6
20260506092759 64 86 0.0 5.0 0.00 0.00 0.00 80 1014.6
20260506092600 64 80 1.0 5.0 0.00 0.00 0.00 80 1014.7
20260506092358 64 80 1.0 5.0 0.00 0.00 0.00 80 1014.7
20260506092156 64 80 1.0 5.0 0.00 0.00 0.00 80 1014.8
20260506091957 64 80 1.0 5.0 0.00 0.00 0.00 80 1014.8
20260506091757 64 80 1.0 5.0 0.00 0.00 0.00 80 1014.8
20260506091555 64 142 1.0 2.0 0.00 0.00 0.00 80 1014.8
20260506091357 64 142 1.0 2.0 0.00 0.00 0.00 80 1014.9
20260506091156 64 142 1.0 3.0 0.00 0.00 0.00 80 1014.9
20260506090954 64 142 1.0 3.0 0.00 0.00 0.00 80 1014.9
20260506090752 64 142 1.0 3.0 0.00 0.00 0.00 80 1014.9
20260506090550 64 142 1.0 4.0 0.00 0.00 0.00 80 1014.9
20260506090148 64 68 1.0 4.0 0.00 0.00 0.00 80 1014.9
20260506085949 64 117 1.0 4.0 0.00 0.00 0.00 80 1015.0
20260506085749 64 33 1.0 7.0 0.00 0.00 0.00 80 1014.9
20260506085548 64 137 1.0 7.0 0.00 0.00 0.00 80 1015.0
20260506085348 64 116 1.0 7.0 0.00 0.00 0.00 80 1015.1
20260506085147 64 99 1.0 7.0 0.00 0.00 0.00 80 1015.2
20260506084948 64 102 1.0 7.0 0.00 0.00 0.00 80 1015.1
20260506084546 64 127 0.0 2.0 0.00 0.00 0.00 80 1015.1
20260506084348 64 128 0.0 2.0 0.00 0.00 0.00 80 1015.2
20260506084146 64 128 0.0 2.0 0.00 0.00 0.00 80 1015.1
20260506083946 64 48 0.0 2.0 0.00 0.00 0.00 80 1015.0
20260506083743 64 46 0.0 2.0 0.00 0.00 0.00 80 1014.9
20260506083542 64 44 0.0 2.0 0.00 0.00 0.00 80 1015.1
20260506083138 64 44 0.0 3.0 0.00 0.00 0.00 80 1015.0
20260506082940 64 44 0.0 3.0 0.00 0.00 0.00 80 1014.9
20260506082539 64 41 1.0 4.0 0.00 0.00 0.00 80 1014.9
20260506082338 64 41 1.0 4.0 0.00 0.00 0.00 80 1014.9
20260506082139 64 98 1.0 4.0 0.00 0.00 0.00 80 1014.9
20260506081938 64 111 1.0 4.0 0.00 0.00 0.00 80 1014.9
20260506081534 64 65 1.0 3.0 0.00 0.00 0.00 80 1014.9
20260506081334 64 65 0.0 3.0 0.00 0.00 0.00 80 1014.9
20260506081134 64 65 0.0 3.0 0.00 0.00 0.00 80 1014.9
20260506080934 64 64 1.0 3.0 0.00 0.00 0.00 80 1015.0
20260506080734 64 316 1.0 6.0 0.00 0.00 0.00 80 1015.0
20260506080535 64 34 1.0 6.0 0.00 0.00 0.00 80 1014.9
20260506080333 64 34 1.0 6.0 0.00 0.00 0.00 80 1014.9
20260506080132 64 33 1.0 6.0 0.00 0.00 0.00 80 1014.9
20260506073523 64 71 1.0 5.0 0.00 0.00 0.00 79 1014.9
20260506073123 64 70 1.0 5.0 0.00 0.00 0.00 79 1015.0
20260506072920 64 332 1.0 5.0 0.00 0.00 0.00 79 1015.0
20260506072719 64 117 0.0 5.0 0.00 0.00 0.00 79 1015.1
20260506072516 64 117 1.0 5.0 0.00 0.00 0.00 79 1015.0
20260506072315 64 124 1.0 5.0 0.00 0.00 0.00 79 1014.9
20260506072116 64 132 1.0 5.0 0.00 0.00 0.00 79 1015.0
20260506071916 64 135 1.0 5.0 0.00 0.00 0.00 79 1015.0
20260506071716 64 134 0.0 5.0 0.00 0.00 0.00 79 1015.0
20260506071516 64 158 0.0 3.0 0.00 0.00 0.00 79 1015.1
20260506071112 64 46 0.0 7.0 0.00 0.00 0.00 79 1015.2
20260506070910 64 46 1.0 7.0 0.00 0.00 0.00 79 1015.2
20260506070711 64 46 1.0 7.0 0.00 0.00 0.00 79 1015.2
20260506070510 64 46 0.0 7.0 0.00 0.00 0.00 79 1015.2
20260506070310 64 71 0.0 3.0 0.00 0.00 0.00 79 1015.2
20260506070109 64 121 1.0 3.0 0.00 0.00 0.00 79 1015.2
20260506062450 65 68 0.0 4.0 0.00 0.00 0.00 78 1015.3
20260506062250 65 67 0.0 4.0 0.00 0.00 0.00 78 1015.4
20260506062048 65 66 1.0 4.0 0.00 0.00 0.00 78 1015.3
20260506061847 65 61 1.0 4.0 0.00 0.00 0.00 78 1015.3
20260506061644 65 60 1.0 4.0 0.00 0.00 0.00 78 1015.3
20260506061442 65 36 1.0 4.0 0.00 0.00 0.00 78 1015.4
20260506061242 65 34 1.0 4.0 0.00 0.00 0.00 78 1015.5
20260506061042 65 34 1.0 4.0 0.00 0.00 0.00 78 1015.5
20260506060842 65 34 1.0 4.0 0.00 0.00 0.00 78 1015.5
20260506060643 65 30 1.0 4.0 0.00 0.00 0.00 78 1015.5
20260506060242 65 100 1.0 3.0 0.00 0.00 0.00 78 1015.6
20260506051229 66 109 1.0 4.0 0.00 0.00 0.00 76 1015.8
20260506051030 66 109 1.0 5.0 0.00 0.00 0.00 76 1015.7
20260506050828 66 108 1.0 5.0 0.00 0.00 0.00 76 1015.7
20260506050428 67 72 1.0 5.0 0.00 0.00 0.00 76 1015.7
20260506050226 67 72 1.0 5.0 0.00 0.00 0.00 76 1015.7
20260506045022 67 80 1.0 3.0 0.00 0.00 0.00 75 1016.2
20260506044822 67 80 1.0 5.0 0.00 0.00 0.00 75 1016.2
20260506044621 67 99 1.0 5.0 0.00 0.00 0.00 75 1016.2
20260506044420 67 65 1.0 5.0 0.00 0.00 0.00 75 1016.2
20260506044217 67 80 1.0 5.0 0.00 0.00 0.00 75 1016.1
20260506044014 67 80 1.0 5.0 0.00 0.00 0.00 75 1016.1
20260506043814 67 123 1.0 3.0 0.00 0.00 0.00 75 1016.2
20260506043615 67 196 1.0 3.0 0.00 0.00 0.00 75 1016.1
20260506043414 67 146 1.0 3.0 0.00 0.00 0.00 75 1016.1
20260506043213 67 107 1.0 3.0 0.00 0.00 0.00 74 1015.9
20260506043012 67 106 1.0 3.0 0.00 0.00 0.00 74 1015.9
20260506042812 67 136 1.0 3.0 0.00 0.00 0.00 74 1015.9
20260506042609 67 87 1.0 5.0 0.00 0.00 0.00 74 1015.9
20260506042410 67 46 1.0 5.0 0.00 0.00 0.00 74 1015.9
20260506042209 67 48 1.0 5.0 0.00 0.00 0.00 74 1015.9
20260506042009 67 42 1.0 5.0 0.00 0.00 0.00 74 1015.8
20260506041806 67 119 1.0 5.0 0.00 0.00 0.00 73 1015.7
20260506041607 67 86 1.0 3.0 0.00 0.00 0.00 74 1015.7
20260506041407 68 88 1.0 3.0 0.00 0.00 0.00 73 1015.6
20260506041005 68 113 1.0 3.0 0.00 0.00 0.00 73 1015.8
20260506040802 68 113 1.0 3.0 0.00 0.00 0.00 73 1015.8
20260506040559 68 113 1.0 3.0 0.00 0.00 0.00 73 1015.7
20260506040359 68 113 1.0 4.0 0.00 0.00 0.00 73 1015.7
20260506040155 68 115 1.0 4.0 0.00 0.00 0.00 73 1015.8
20260506035956 68 125 1.0 4.0 0.00 0.00 0.00 73 1015.8
20260506035756 68 231 1.0 9.0 0.00 0.00 0.00 73 1015.8
20260506035557 68 190 1.0 9.0 0.00 0.00 0.00 72 1015.8
20260506035356 68 85 1.0 9.0 0.00 0.00 0.00 72 1015.7
20260506035154 68 70 1.0 9.0 0.00 0.00 0.00 72 1015.9
20260506034754 68 106 1.0 4.0 0.00 0.00 0.00 72 1015.7
20260506034555 68 83 1.0 2.0 0.00 0.00 0.00 72 1015.7
20260506034354 68 79 1.0 3.0 0.00 0.00 0.00 71 1015.6
20260506034155 69 14 1.0 3.0 0.00 0.00 0.00 72 1015.7
20260506033955 69 103 1.0 3.0 0.00 0.00 0.00 71 1015.7
20260506033753 69 103 1.0 3.0 0.00 0.00 0.00 71 1015.6
20260506033350 69 105 1.0 3.0 0.00 0.00 0.00 71 1015.6
20260506032950 69 117 1.0 3.0 0.00 0.00 0.00 70 1015.8
20260506032750 69 119 1.0 3.0 0.00 0.00 0.00 70 1015.8
20260506032349 69 49 1.0 3.0 0.00 0.00 0.00 70 1015.8
20260506032149 69 99 1.0 3.0 0.00 0.00 0.00 70 1015.9
20260506031947 69 13 1.0 6.0 0.00 0.00 0.00 70 1015.9
20260506031745 69 76 1.0 6.0 0.00 0.00 0.00 70 1015.9
20260506031546 69 135 1.0 6.0 0.00 0.00 0.00 70 1015.8
20260506031345 69 136 1.0 6.0 0.00 0.00 0.00 70 1015.8
20260506031145 69 74 1.0 6.0 0.00 0.00 0.00 70 1015.8
20260506030942 69 305 1.0 6.0 0.00 0.00 0.00 70 1015.9
20260506030744 69 107 1.0 6.0 0.00 0.00 0.00 69 1015.8
20260506030543 69 126 1.0 6.0 0.00 0.00 0.00 69 1015.8
20260506030140 70 126 1.0 6.0 0.00 0.00 0.00 69 1015.8
20260506025741 70 92 1.0 5.0 0.00 0.00 0.00 69 1015.9
20260506025539 70 89 1.0 5.0 0.00 0.00 0.00 68 1015.8
20260506025336 70 97 1.0 5.0 0.00 0.00 0.00 68 1015.9
20260506025137 70 70 1.0 4.0 0.00 0.00 0.00 68 1015.9
20260506024936 70 118 1.0 4.0 0.00 0.00 0.00 68 1015.9
20260506024735 70 105 1.0 4.0 0.00 0.00 0.00 68 1015.9
20260506024536 70 76 1.0 3.0 0.00 0.00 0.00 68 1015.9
20260506024135 70 44 1.0 3.0 0.00 0.00 0.00 67 1015.8
20260506023937 70 44 1.0 3.0 0.00 0.00 0.00 67 1015.9
20260506023736 70 51 1.0 3.0 0.00 0.00 0.00 67 1015.9
20260506023334 70 64 1.0 2.0 0.00 0.00 0.00 67 1015.9
20260506023134 70 63 1.0 3.0 0.00 0.00 0.00 67 1015.9
20260506022734 70 125 1.0 3.0 0.00 0.00 0.00 66 1015.9
20260506022534 70 126 1.0 3.0 0.00 0.00 0.00 66 1015.8
20260506022335 70 126 1.0 3.0 0.00 0.00 0.00 66 1015.8
20260506021932 70 126 0.0 3.0 0.00 0.00 0.00 65 1015.8
20260506021732 71 114 0.0 3.0 0.00 0.00 0.00 65 1015.8
20260506021530 71 113 0.0 3.0 0.00 0.00 0.00 65 1015.9
20260506021329 71 114 0.0 3.0 0.00 0.00 0.00 65 1015.8
20260506020926 71 114 1.0 4.0 0.00 0.00 0.00 64 1015.8
20260506020725 71 114 1.0 5.0 0.00 0.00 0.00 64 1015.7
20260506020523 71 114 1.0 5.0 0.00 0.00 0.00 64 1015.7
20260506020322 71 98 1.0 5.0 0.00 0.00 0.00 64 1015.7
20260506020122 71 98 1.0 5.0 0.00 0.00 0.00 63 1015.6
20260506015923 71 49 0.0 5.0 0.00 0.00 0.00 64 1015.6
20260506015723 71 68 0.0 3.0 0.00 0.00 0.00 63 1015.6
20260506015524 71 50 0.0 2.0 0.00 0.00 0.00 62 1015.5
20260506015320 71 43 0.0 2.0 0.00 0.00 0.00 62 1015.5
20260506015121 71 42 0.0 3.0 0.00 0.00 0.00 62 1015.5
20260506014919 71 42 0.0 3.0 0.00 0.00 0.00 62 1015.6
20260506014720 71 42 0.0 3.0 0.00 0.00 0.00 62 1015.5
20260506014517 71 139 0.0 3.0 0.00 0.00 0.00 62 1015.5
20260506014113 71 68 0.0 2.0 0.00 0.00 0.00 62 1015.4
20260506013912 71 68 0.0 2.0 0.00 0.00 0.00 61 1015.3
20260506013710 71 63 0.0 0.0 0.00 0.00 0.00 61 1015.3
20260506013508 71 63 0.0 0.0 0.00 0.00 0.00 60 1015.3
20260506013310 71 63 0.0 0.0 0.00 0.00 0.00 61 1015.3
20260506013109 71 63 0.0 0.0 0.00 0.00 0.00 61 1015.3
20260506012705 72 63 0.0 0.0 0.00 0.00 0.00 61 1015.2
20260506012504 72 63 0.0 0.0 0.00 0.00 0.00 61 1015.2
20260506012308 72 63 0.0 0.0 0.00 0.00 0.00 61 1015.3
20260506012101 72 63 0.0 1.0 0.00 0.00 0.00 61 1015.2
20260506011859 72 63 0.0 1.0 0.00 0.00 0.00 60 1015.1
20260506011658 72 63 0.0 1.0 0.00 0.00 0.00 61 1015.1
20260506011500 72 63 0.0 1.0 0.00 0.00 0.00 61 1015.2
20260506011056 73 62 0.0 4.0 0.00 0.00 0.00 60 1015.0
20260506010857 73 62 0.0 4.0 0.00 0.00 0.00 59 1015.0
20260506010655 73 62 0.0 4.0 0.00 0.00 0.00 58 1015.1
20260506010454 73 62 0.0 4.0 0.00 0.00 0.00 58 1015.0
20260506010254 73 62 0.0 4.0 0.00 0.00 0.00 58 1015.0
20260506010055 73 81 0.0 1.0 0.00 0.00 0.00 57 1015.0
20260506005451 73 81 0.0 1.0 0.00 0.00 0.00 56 1014.9
20260506005250 74 81 0.0 1.0 0.00 0.00 0.00 56 1014.9
20260506004847 74 81 0.0 1.0 0.00 0.00 0.00 56 1014.8
20260506004246 74 81 0.0 2.0 0.00 0.00 0.00 55 1014.8
20260506004047 74 81 0.0 2.0 0.00 0.00 0.00 55 1014.7
20260506003644 74 81 0.0 3.0 0.00 0.00 0.00 54 1014.6
20260506003445 74 81 0.0 3.0 0.00 0.00 0.00 54 1014.6
20260506003245 74 81 0.0 3.0 0.00 0.00 0.00 54 1014.6
20260506002843 75 87 0.0 2.0 0.00 0.00 0.00 54 1014.6
20260506002641 75 87 0.0 3.0 0.00 0.00 0.00 54 1014.5
20260506002439 75 87 0.0 3.0 0.00 0.00 0.00 53 1014.5
20260506002240 75 87 0.0 3.0 0.00 0.00 0.00 53 1014.6
20260506002037 75 87 0.0 3.0 0.00 0.00 0.00 54 1014.5
20260506001836 75 61 0.0 3.0 0.00 0.00 0.00 53 1014.5
20260506001635 75 85 0.0 3.0 0.00 0.00 0.00 53 1014.5
20260506001435 75 85 0.0 3.0 0.00 0.00 0.00 53 1014.5
20260506001233 75 5 1.0 3.0 0.00 0.00 0.00 53 1014.5
20260506001034 75 5 1.0 3.0 0.00 0.00 0.00 53 1014.4
20260506000834 76 5 1.0 3.0 0.00 0.00 0.00 53 1014.4
20260506000634 76 5 1.0 3.0 0.00 0.00 0.00 52 1014.3
20260506000434 76 77 1.0 3.0 0.00 0.00 0.00 52 1014.3
20260506000235 76 75 1.0 3.0 0.00 0.00 0.00 52 1014.3
20260506000034 76 65 1.0 2.0 0.00 0.00 0.00 52 1014.3
20260505235836 76 65 1.0 2.0 0.00 0.00 0.00 52 1014.3
20260505235636 76 113 1.0 2.0 0.00 0.00 0.00 51 1014.2
20260505235435 76 114 1.0 2.0 0.00 0.00 0.00 51 1014.2
20260505235236 76 113 1.0 2.0 0.00 0.00 0.00 51 1014.2
20260505235036 76 57 1.0 2.0 0.00 0.00 0.00 51 1014.2
20260505234834 76 92 1.0 2.0 0.00 0.00 0.00 51 1014.2
20260505234233 77 92 1.0 4.0 0.00 0.00 0.00 50 1014.2
20260505233830 77 115 0.0 4.0 0.00 0.00 0.00 50 1014.1
20260505233428 77 101 0.0 2.0 0.00 0.00 0.00 50 1014.1
20260505233228 77 104 0.0 1.0 0.00 0.00 0.00 49 1014.1
20260505233029 77 103 0.0 1.0 0.00 0.00 0.00 49 1014.1
20260505232825 77 70 0.0 3.0 0.00 0.00 0.00 49 1014.1
20260505232621 77 70 0.0 3.0 0.00 0.00 0.00 49 1014.1
20260505232419 77 70 1.0 3.0 0.00 0.00 0.00 49 1014.2
20260505232218 78 70 1.0 3.0 0.00 0.00 0.00 49 1014.1
20260505232017 78 17 1.0 3.0 0.00 0.00 0.00 49 1014.1
20260505231817 78 59 1.0 4.0 0.00 0.00 0.00 49 1014.1
20260505231412 78 57 1.0 4.0 0.00 0.00 0.00 49 1014.1
20260505231211 78 56 1.0 5.0 0.00 0.00 0.00 49 1014.1
20260505230813 78 74 2.0 7.0 0.00 0.00 0.00 48 1014.1
20260505230613 78 73 2.0 7.0 0.00 0.00 0.00 48 1014.1
20260505230413 78 168 1.0 7.0 0.00 0.00 0.00 47 1014.1
20260505230211 78 119 1.0 7.0 0.00 0.00 0.00 48 1014.1
20260505230012 78 69 1.0 6.0 0.00 0.00 0.00 47 1014.2
20260505225813 78 78 1.0 6.0 0.00 0.00 0.00 47 1014.2
20260505225612 78 126 1.0 3.0 0.00 0.00 0.00 48 1014.0
20260505225211 78 329 1.0 4.0 0.00 0.00 0.00 47 1014.2
20260505225010 78 328 1.0 4.0 0.00 0.00 0.00 47 1014.1
20260505224610 78 92 1.0 4.0 0.00 0.00 0.00 47 1014.2
20260505224210 78 148 1.0 3.0 0.00 0.00 0.00 47 1014.2
20260505223810 78 34 1.0 3.0 0.00 0.00 0.00 47 1014.2
20260505223610 78 34 1.0 3.0 0.00 0.00 0.00 47 1014.2
20260505223209 78 86 1.0 4.0 0.00 0.00 0.00 47 1014.2
20260505223012 78 311 1.0 4.0 0.00 0.00 0.00 47 1014.3
20260505222811 78 271 1.0 4.0 0.00 0.00 0.00 47 1014.3
20260505222609 78 271 1.0 5.0 0.00 0.00 0.00 48 1014.3
20260505222408 79 271 1.0 5.0 0.00 0.00 0.00 47 1014.3
20260505222208 78 103 1.0 5.0 0.00 0.00 0.00 46 1014.3
20260505222009 79 41 1.0 5.0 0.00 0.00 0.00 46 1014.3
20260505221809 79 106 1.0 5.0 0.00 0.00 0.00 47 1014.3
20260505221607 79 120 1.0 5.0 0.00 0.00 0.00 46 1014.3
20260505221405 79 30 1.0 5.0 0.00 0.00 0.00 46 1014.3
20260505221206 79 156 1.0 5.0 0.00 0.00 0.00 46 1014.4
20260505221006 79 123 2.0 5.0 0.00 0.00 0.00 46 1014.4
20260505220805 79 141 2.0 9.0 0.00 0.00 0.00 46 1014.5
20260505220606 79 10 2.0 9.0 0.00 0.00 0.00 46 1014.4
20260505220407 79 36 2.0 9.0 0.00 0.00 0.00 45 1014.4
20260505220205 79 30 2.0 9.0 0.00 0.00 0.00 46 1014.4
20260505220004 79 300 2.0 9.0 0.00 0.00 0.00 46 1014.5
20260505215805 79 295 1.0 6.0 0.00 0.00 0.00 46 1014.5
20260505215604 79 193 1.0 6.0 0.00 0.00 0.00 46 1014.5
20260505215403 79 192 2.0 6.0 0.00 0.00 0.00 46 1014.5
20260505215204 79 310 2.0 6.0 0.00 0.00 0.00 46 1014.5
20260505215003 79 306 2.0 7.0 0.00 0.00 0.00 45 1014.4
20260505214803 79 209 2.0 7.0 0.00 0.00 0.00 45 1014.4
20260505214604 79 142 2.0 7.0 0.00 0.00 0.00 45 1014.4
20260505214404 80 119 2.0 7.0 0.00 0.00 0.00 44 1014.5
20260505214204 80 85 2.0 7.0 0.00 0.00 0.00 45 1014.4
20260505214005 80 103 2.0 6.0 0.00 0.00 0.00 45 1014.5
20260505213806 80 103 2.0 6.0 0.00 0.00 0.00 45 1014.4
20260505213604 80 150 2.0 6.0 0.00 0.00 0.00 45 1014.4
20260505213404 80 109 2.0 6.0 0.00 0.00 0.00 45 1014.4
20260505213205 80 116 2.0 6.0 0.00 0.00 0.00 46 1014.4
20260505213004 80 81 2.0 6.0 0.00 0.00 0.00 46 1014.4
20260505212803 80 161 1.0 6.0 0.00 0.00 0.00 45 1014.4
20260505212606 80 200 1.0 5.0 0.00 0.00 0.00 46 1014.4
20260505212404 80 343 1.0 5.0 0.00 0.00 0.00 45 1014.5
20260505212206 80 88 2.0 5.0 0.00 0.00 0.00 45 1014.6
20260505212005 80 81 2.0 5.0 0.00 0.00 0.00 45 1014.6
20260505211604 80 41 2.0 4.0 0.00 0.00 0.00 46 1014.5
20260505211405 80 203 2.0 5.0 0.00 0.00 0.00 45 1014.5
20260505211204 80 119 2.0 6.0 0.00 0.00 0.00 45 1014.4
20260505211005 80 124 2.0 6.0 0.00 0.00 0.00 45 1014.4
20260505210804 80 124 2.0 6.0 0.00 0.00 0.00 45 1014.4
20260505210604 80 122 1.0 6.0 0.00 0.00 0.00 45 1014.4
20260505210405 80 109 1.0 6.0 0.00 0.00 0.00 44 1014.5
20260505210004 80 138 2.0 5.0 0.00 0.00 0.00 46 1014.6
20260505205806 80 80 2.0 5.0 0.00 0.00 0.00 46 1014.6
20260505205605 80 326 2.0 5.0 0.00 0.00 0.00 46 1014.5
20260505205204 80 45 2.0 5.0 0.00 0.00 0.00 45 1014.6
20260505205003 79 157 2.0 5.0 0.00 0.00 0.00 47 1014.6
20260505204604 79 119 2.0 5.0 0.00 0.00 0.00 45 1014.5
20260505204403 79 117 2.0 4.0 0.00 0.00 0.00 44 1014.5
20260505204204 79 130 2.0 5.0 0.00 0.00 0.00 45 1014.6
20260505204003 79 73 2.0 5.0 0.00 0.00 0.00 45 1014.7
20260505203604 79 259 2.0 6.0 0.00 0.00 0.00 47 1014.7
20260505203404 79 55 2.0 6.0 0.00 0.00 0.00 46 1014.7
20260505203203 79 11 2.0 6.0 0.00 0.00 0.00 46 1014.7
20260505203004 79 221 2.0 6.0 0.00 0.00 0.00 45 1014.7
20260505202604 80 96 2.0 5.0 0.00 0.00 0.00 47 1014.9
20260505202403 80 107 2.0 5.0 0.00 0.00 0.00 47 1014.8
20260505202005 80 72 2.0 6.0 0.00 0.00 0.00 46 1014.8
20260505201602 80 191 2.0 6.0 0.00 0.00 0.00 46 1014.8
20260505201400 80 340 2.0 6.0 0.00 0.00 0.00 46 1015.0
20260505200955 80 35 2.0 6.0 0.00 0.00 0.00 45 1014.9
20260505200754 80 313 2.0 6.0 0.00 0.00 0.00 45 1015.1
20260505200551 80 136 2.0 6.0 0.00 0.00 0.00 45 1015.1
20260505200351 80 123 2.0 6.0 0.00 0.00 0.00 45 1015.0
20260505200149 80 129 2.0 4.0 0.00 0.00 0.00 45 1015.0
20260505195750 80 346 2.0 4.0 0.00 0.00 0.00 46 1014.9
20260505195550 80 86 2.0 5.0 0.00 0.00 0.00 45 1014.9
20260505195348 80 275 2.0 7.0 0.00 0.00 0.00 46 1015.0
20260505195147 80 271 2.0 7.0 0.00 0.00 0.00 45 1014.9
20260505194948 79 279 2.0 7.0 0.00 0.00 0.00 45 1014.9
20260505194747 79 49 3.0 7.0 0.00 0.00 0.00 45 1015.1
20260505194547 79 98 3.0 7.0 0.00 0.00 0.00 45 1015.0
20260505194347 79 99 3.0 7.0 0.00 0.00 0.00 45 1015.1
20260505194148 79 103 3.0 7.0 0.00 0.00 0.00 44 1015.2
20260505193949 79 105 2.0 7.0 0.00 0.00 0.00 44 1015.2
20260505193746 79 189 2.0 7.0 0.00 0.00 0.00 45 1015.2
20260505193544 79 78 2.0 7.0 0.00 0.00 0.00 45 1015.3
20260505193345 79 165 1.0 7.0 0.00 0.00 0.00 45 1015.3
20260505193144 79 80 2.0 7.0 0.00 0.00 0.00 45 1015.4
20260505192944 79 102 2.0 6.0 0.00 0.00 0.00 45 1015.5
20260505192743 79 106 2.0 6.0 0.00 0.00 0.00 45 1015.5
20260505192542 79 169 3.0 7.0 0.00 0.00 0.00 45 1015.5
20260505192342 80 5 3.0 7.0 0.00 0.00 0.00 44 1015.6
20260505191942 80 148 2.0 7.0 0.00 0.00 0.00 44 1015.7
20260505191743 80 62 2.0 7.0 0.00 0.00 0.00 44 1015.7
20260505191543 79 119 2.0 8.0 0.00 0.00 0.00 44 1015.9
20260505191342 79 103 2.0 8.0 0.00 0.00 0.00 45 1015.9
20260505191141 79 169 2.0 8.0 0.00 0.00 0.00 44 1015.9
20260505190942 79 244 2.0 8.0 0.00 0.00 0.00 43 1016.1
20260505190741 79 205 2.0 8.0 0.00 0.00 0.00 43 1015.9
20260505190337 79 222 2.0 5.0 0.00 0.00 0.00 45 1015.9
20260505190135 79 199 2.0 5.0 0.00 0.00 0.00 45 1015.9
20260505185735 79 142 2.0 5.0 0.00 0.00 0.00 45 1016.1
20260505185532 79 84 2.0 5.0 0.00 0.00 0.00 45 1016.1
20260505185332 79 71 2.0 5.0 0.00 0.00 0.00 44 1016.2
20260505184929 80 106 2.0 7.0 0.00 0.00 0.00 43 1016.3
20260505184728 80 117 2.0 7.0 0.00 0.00 0.00 43 1016.3
20260505184528 80 52 2.0 7.0 0.00 0.00 0.00 45 1016.3
20260505184326 79 167 2.0 7.0 0.00 0.00 0.00 45 1016.3
20260505184125 79 115 2.0 5.0 0.00 0.00 0.00 46 1016.3
20260505183927 79 317 2.0 4.0 0.00 0.00 0.00 45 1016.4
20260505183724 79 117 2.0 6.0 0.00 0.00 0.00 44 1016.3
20260505183523 79 117 2.0 6.0 0.00 0.00 0.00 44 1016.4
20260505182921 79 100 2.0 7.0 0.00 0.00 0.00 44 1016.4
20260505182717 79 53 2.0 7.0 0.00 0.00 0.00 44 1016.5
20260505182517 79 101 2.0 7.0 0.00 0.00 0.00 44 1016.6
20260505182117 78 12 2.0 5.0 0.00 0.00 0.00 45 1016.6
20260505181715 78 92 2.0 5.0 0.00 0.00 0.00 44 1016.5
20260505181513 78 92 2.0 5.0 0.00 0.00 0.00 44 1016.6
20260505181313 78 227 2.0 3.0 0.00 0.00 0.00 45 1016.7
20260505180915 78 232 2.0 5.0 0.00 0.00 0.00 43 1016.7
20260505180713 78 267 2.0 5.0 0.00 0.00 0.00 43 1016.8
20260505180515 79 302 2.0 6.0 0.00 0.00 0.00 43 1016.8
20260505180313 79 291 2.0 6.0 0.00 0.00 0.00 42 1016.8
20260505180114 79 324 2.0 6.0 0.00 0.00 0.00 43 1016.9
20260505175911 79 185 2.0 6.0 0.00 0.00 0.00 44 1016.9
20260505175713 79 5 2.0 6.0 0.00 0.00 0.00 44 1016.9
20260505175511 79 80 2.0 5.0 0.00 0.00 0.00 44 1016.8
20260505175312 79 132 2.0 7.0 0.00 0.00 0.00 44 1016.8
20260505174913 79 163 2.0 7.0 0.00 0.00 0.00 44 1016.9
20260505174711 79 154 2.0 8.0 0.00 0.00 0.00 44 1016.9
20260505174508 79 159 2.0 8.0 0.00 0.00 0.00 44 1016.9
20260505174306 78 128 2.0 8.0 0.00 0.00 0.00 44 1016.9
20260505173703 78 136 2.0 7.0 0.00 0.00 0.00 44 1016.7
20260505173504 78 145 2.0 6.0 0.00 0.00 0.00 44 1016.8
20260505173303 78 144 2.0 6.0 0.00 0.00 0.00 44 1016.9
20260505173103 78 92 2.0 5.0 0.00 0.00 0.00 44 1016.9
20260505172903 78 229 2.0 5.0 0.00 0.00 0.00 45 1016.9
20260505172704 78 107 2.0 5.0 0.00 0.00 0.00 46 1016.8
20260505172500 78 76 2.0 5.0 0.00 0.00 0.00 47 1016.9
20260505172057 78 54 2.0 6.0 0.00 0.00 0.00 46 1016.9
20260505171858 78 53 2.0 6.0 0.00 0.00 0.00 47 1016.9
20260505171657 77 78 2.0 6.0 0.00 0.00 0.00 47 1016.9
20260505171456 77 96 2.0 6.0 0.00 0.00 0.00 46 1016.9
20260505171255 77 92 2.0 6.0 0.00 0.00 0.00 49 1017.0
20260505171055 77 109 2.0 5.0 0.00 0.00 0.00 48 1016.9
20260505170855 77 14 2.0 5.0 0.00 0.00 0.00 47 1016.9
20260505170657 77 212 2.0 4.0 0.00 0.00 0.00 47 1017.0
20260505170456 77 304 1.0 4.0 0.00 0.00 0.00 47 1017.0
20260505170253 77 183 1.0 5.0 0.00 0.00 0.00 47 1017.1
20260505170053 77 58 2.0 10.0 0.00 0.00 0.00 48 1017.0
20260505165451 77 160 2.0 10.0 0.00 0.00 0.00 49 1017.1
20260505165248 77 76 2.0 10.0 0.00 0.00 0.00 49 1017.1
20260505165046 77 142 2.0 5.0 0.00 0.00 0.00 50 1017.2
20260505164846 77 162 2.0 5.0 0.00 0.00 0.00 48 1017.2
20260505164647 77 297 2.0 5.0 0.00 0.00 0.00 49 1017.3
20260505164445 77 230 2.0 5.0 0.00 0.00 0.00 50 1017.2
20260505164043 77 114 2.0 5.0 0.00 0.00 0.00 50 1017.4
20260505163840 76 177 2.0 5.0 0.00 0.00 0.00 49 1017.5
20260505163640 76 183 2.0 5.0 0.00 0.00 0.00 52 1017.4
20260505163436 76 92 2.0 5.0 0.00 0.00 0.00 52 1017.4
20260505163238 76 113 2.0 5.0 0.00 0.00 0.00 52 1017.4
20260505163037 76 160 2.0 5.0 0.00 0.00 0.00 53 1017.4
20260505162837 76 70 2.0 5.0 0.00 0.00 0.00 52 1017.4
20260505162633 76 50 2.0 5.0 0.00 0.00 0.00 53 1017.4
20260505162436 76 43 2.0 4.0 0.00 0.00 0.00 52 1017.5
20260505162235 76 200 2.0 6.0 0.00 0.00 0.00 53 1017.5
20260505162034 76 9 2.0 6.0 0.00 0.00 0.00 53 1017.5
20260505161834 76 223 2.0 6.0 0.00 0.00 0.00 52 1017.5
20260505161632 76 284 1.0 6.0 0.00 0.00 0.00 53 1017.6
20260505161432 76 344 2.0 6.0 0.00 0.00 0.00 53 1017.5
20260505161233 76 335 2.0 5.0 0.00 0.00 0.00 52 1017.6
20260505161032 76 355 2.0 5.0 0.00 0.00 0.00 52 1017.6
20260505160831 75 0 2.0 4.0 0.00 0.00 0.00 52 1017.6
20260505160231 75 142 2.0 5.0 0.00 0.00 0.00 55 1017.7
20260505153228 75 344 2.0 5.0 0.00 0.00 0.00 55 1017.9
20260505153026 75 134 2.0 5.0 0.00 0.00 0.00 56 1017.9
20260505152824 75 83 2.0 5.0 0.00 0.00 0.00 56 1017.9
20260505152422 74 151 2.0 4.0 0.00 0.00 0.00 55 1018.0
20260505152221 74 201 1.0 4.0 0.00 0.00 0.00 56 1017.9
20260505152021 74 131 1.0 4.0 0.00 0.00 0.00 57 1017.9
20260505151618 74 167 1.0 4.0 0.00 0.00 0.00 55 1017.9
20260505151420 74 145 1.0 4.0 0.00 0.00 0.00 56 1017.9
20260505151220 74 149 1.0 3.0 0.00 0.00 0.00 57 1017.9
20260505150818 74 76 1.0 4.0 0.00 0.00 0.00 58 1017.9
20260505150620 74 49 1.0 4.0 0.00 0.00 0.00 56 1017.9
20260505150417 74 204 1.0 4.0 0.00 0.00 0.00 56 1017.9
20260505150217 74 119 2.0 6.0 0.00 0.00 0.00 58 1017.9